Location: Lake Sonoma
(38.7200°N, 123.0564°W)
Time: 18:01:08
(UTC-07:00)

Daily predictions for brighter satellites

Satellite Brightness Start Highest point End
(mag) Time Altitude Azimuth Time Altitude Azimuth Time Altitude Azimuth
Cosmos 1777 Rocket 4.3 20:15:02 10° N 20:20:07 48° ENE 20:25:11 10° SE
Cosmos 2297 Rocket 3.6 20:20:08 10° N 20:24:24 21° NE 20:28:39 10° ESE
Meteor 2-21 4.5 20:18:25 10° S 20:24:35 75° E 20:30:46 10° N
Lacrosse 5 4.1 20:23:02 10° N 20:25:29 13° NNE 20:27:57 10° NE
Helios 1A 3.6 20:23:06 10° S 20:27:11 60° WSW 20:31:21 10° NNW
Cosmos 2123 Rocket 4.4 20:23:56 10° N 20:29:46 42° ENE 20:35:34 10° SSE
Cosmos 2208 Rocket 4.3 20:25:08 10° S 20:30:08 44° ESE 20:35:14 10° NNE
Meteor 1-11 Rocket 4.3 20:24:50 10° SSW 20:30:23 65° W 20:35:54 10° N
Cosmos 1892 Rocket 3.7 20:26:23 10° N 20:30:48 54° E 20:35:11 10° SSE
Okean 2 3.8 20:27:29 10° N 20:31:30 45° E 20:35:29 10° SSE
Resurs 1-3 3.9 20:27:59 10° S 20:32:21 73° WSW 20:36:45 10° NNW
Cosmos 1975 4.2 20:32:23 10° SE 20:35:25 20° E 20:38:28 10° NE
Cosmos 1455 Rocket 3.3 20:31:30 10° SSE 20:35:37 45° E 20:39:46 10° NNE
Cosmos 1025 Rocket 3.2 20:31:25 10° N 20:35:48 79° W 20:40:07 10° S
Meteor 2-15 4.4 20:35:01 10° N 20:41:03 64° E 20:47:02 10° SSE
Meteor 2-14 Rocket 4.4 20:37:27 10° S 20:43:35 76° E 20:49:45 10° N
Tiangong 1 1.9 20:42:38 10° W 20:45:39 47° NNW 20:48:39 10° ENE
Meteor 2-15 Rocket 4.5 20:39:56 10° N 20:45:56 59° E 20:51:54 10° SSE
Cosmos 2219 4.1 20:41:14 10° NNW 20:46:39 51° WSW 20:52:03 10° S
Lacrosse 5 rocket 2.9 20:43:59 10° NNW 20:46:48 20° NE 20:49:06 12° ENE
Cosmos 1315 Rocket 4.4 20:43:09 10° SSW 20:46:54 40° WNW 20:50:45 10° N
Resurs 01 Rocket 3.2 20:43:15 10° SSW 20:47:20 36° W 20:51:28 10° NNW
Cosmos 1461 3.8 20:44:06 10° NNW 20:47:46 31° NE 20:50:13 17° ESE
Cosmos 1570 Rocket 4.0 20:43:12 10° S 20:48:28 73° ESE 20:53:45 10° NNE
CZ-4 DEB 3.9 20:47:39 17° ESE 20:49:11 25° ENE 20:51:50 10° NNE
NOSS 7 (D) 4.4 20:46:00 10° SSW 20:49:30 61° ESE 20:52:49 10° NE
USA 186 1.5 20:47:50 10° SSE 20:50:59 72° ENE 20:53:59 10° N
NOSS 3-4 (A) 3.9 20:44:41 10° NNW 20:51:42 67° NE 20:58:16 14° SE
NOSS 3-4 (C) 3.9 20:44:48 10° NNW 20:51:49 67° NE 20:58:21 14° SE
OTV 4 0.3 20:50:45 10° W 20:53:44 77° S 20:55:25 23° E
Envisat 4.0 20:51:27 16° ESE 20:54:37 29° ENE 20:58:56 10° N
EO 1 Delta rocket 3.9 20:51:31 10° N 20:56:11 82° E 21:01:28 10° S
CZ-4B DEB 4.3 20:54:24 10° S 20:57:29 38° W 21:00:35 10° NNW
Meteor 2-4 Rocket 4.3 20:53:13 10° NNW 20:58:58 63° W 21:04:49 10° S
H-2A R/B 3.0 20:56:06 10° S 20:59:56 73° W 21:03:52 10° NNW
Meteor 1-12 Rocket 4.4 20:55:42 10° S 21:01:12 54° E 21:06:51 10° NNE
Cosmos 1934 Rocket 4.1 20:55:46 10° S 21:01:53 81° W 21:08:07 10° N
Cosmos 2278 3.6 20:57:25 10° SSW 21:03:04 78° ESE 21:08:47 10° NNE
Cosmos 1697 Rocket 3.5 20:58:35 10° SSE 21:03:14 27° ESE 21:07:54 10° NE
BREEZE-M DEB (TANK) 4.0 21:02:14 10° N 21:03:37 14° NNE 21:05:25 10° ENE
Cosmos 1939 Rocket 3.6 21:04:27 23° ESE 21:06:21 35° ENE 21:10:09 10° N
DELTA 2 R/B (1) 3.6 21:00:55 10° W 21:06:31 82° N 21:10:34 19° E
Delta 2 Rocket 4.2 21:03:27 10° W 21:08:56 57° S 21:11:50 24° ESE
Cosmos 1544 Rocket 4.5 21:05:01 10° SSW 21:09:14 50° W 21:13:33 10° N
EP 1 4.5 21:08:29 10° SW 21:10:58 65° NW 21:13:31 10° NNE
Iridium 4 Rocket 3.4 21:10:49 10° N 21:15:56 58° E 21:19:13 19° SSE
Cosmos 2369 3.7 21:10:21 10° SSW 21:16:01 88° ESE 21:21:45 10° NNE
SJ-11-01 4.2 21:15:05 19° SSE 21:18:24 70° ENE 21:23:04 10° N
OAO 2 Rocket 3.7 21:15:08 10° WSW 21:19:56 44° SSE 21:21:56 30° ESE
Hubble Space Telescope 2.8 21:19:55 10° SW 21:22:24 15° SSW 21:23:04 15° S
Cosmos 1980 Rocket 3.3 21:25:46 24° E 21:25:46 24° E 21:29:27 10° NE
Cosmos 1346 Rocket 3.9 21:25:27 10° NNW 21:29:11 43° W 21:32:57 10° SSW
ERS-1 Rocket 2.9 21:27:33 22° SSE 21:30:50 85° ENE 21:35:52 10° NNW
ARGOS 4.4 21:31:03 22° ENE 21:31:52 23° ENE 21:36:02 10° NNE
Cosmos 1898 Rocket 3.9 21:28:32 10° N 21:33:38 46° ENE 21:35:11 36° ESE
RESURS DK-1 3.9 21:31:57 10° N 21:35:12 22° ENE 21:35:13 22° ENE
SL-24 R/B - RUBIN 2 4.2 21:30:50 10° SSW 21:36:33 72° ESE 21:42:57 10° NE
Cosmos 2173 Rocket 4.1 21:38:28 24° SSE 21:42:14 57° E 21:48:26 10° NNE
Cosmos 1500 3.0 21:44:14 52° S 21:45:05 88° W 21:48:53 10° N
CZ-3C R/B 4.0 21:14:27 10° W 21:46:08 31° SSW 21:51:06 20° SSE
Cosmos 2061 Rocket 4.0 21:45:33 26° SSE 21:49:13 65° E 21:55:25 10° NNE
Cosmos 2100 Rocket 3.9 21:46:39 20° S 21:51:08 74° E 21:57:22 10° N
MetOp-B 4.2 21:51:33 47° ESE 21:52:39 56° ENE 21:57:53 10° N
Cosmos 1825 Rocket 4.0 21:48:35 10° N 21:52:32 46° ENE 21:52:32 46° ENE
Cosmos 2227 Rocket 2.8 21:47:27 10° NNW 21:52:57 53° WSW 21:56:06 25° S
Cosmos 468 Rocket 3.8 21:49:19 16° SSW 21:53:29 80° ESE 21:58:37 10° NNE
Cosmos 1814 Rocket 3.9 21:58:00 31° S 22:00:38 78° ESE 22:05:58 10° NNE
Cosmos 1953 Rocket 4.4 21:56:59 10° N 22:00:21 38° NE 22:00:21 38° NE
Cosmos 1340 4.0 21:59:02 10° N 22:01:17 30° NNE 22:01:17 30° NNE
Cosmos 1656 4.0 21:57:59 10° SSW 22:03:35 66° WNW 22:09:08 10° NNE
H-2A R/B 1.9 22:03:40 75° SW 22:03:50 76° WSW 22:07:58 10° NNW
Cosmos 2297 Rocket 2.7 22:03:17 10° NNW 22:08:48 55° WSW 22:10:48 36° SSW
Lacrosse 5 2.4 22:04:49 10° NNW 22:09:40 43° NE 22:09:59 43° NE
deb Chang Zheng 4 4.0 22:05:46 10° N 22:10:11 61° WNW 22:11:54 34° SW
SPOT 5 2.9 22:11:02 63° S 22:11:51 82° WSW 22:16:48 10° NNW
Cosmos 972 Rocket 4.3 22:06:45 10° NNW 22:12:41 85° ENE 22:14:11 55° SSE
Cosmos 1743 3.5 22:16:42 49° NNW 22:16:42 49° NNW 22:19:42 10° N
USA 215 3.9 22:16:43 36° ENE 22:18:42 46° NE 22:24:52 10° NW
YAOGAN 6 3.9 22:21:11 38° NNW 22:21:11 38° NNW 22:23:36 10° NNW
Cosmos 1758 Rocket 4.5 22:16:11 10° N 22:19:08 39° NNE 22:19:08 39° NNE
Cosmos 2298 Rocket 4.4 22:15:51 10° NNW 22:21:04 58° WSW 22:21:59 51° SW
Tiangong 1 3.8 22:19:33 10° WNW 22:20:46 20° NW 22:20:46 20° NW
Lacrosse 5 rocket 2.8 22:22:41 10° NW 22:24:50 29° WNW 22:24:50 29° WNW
Cosmos 1725 Rocket 4.0 22:26:55 62° E 22:26:55 62° E 22:32:48 10° NNE
H-2A R/B 3.1 22:31:30 32° NE 22:31:30 32° NE 22:34:44 10° N
Cosmos 1459 Rocket 4.5 22:27:57 24° SSW 22:31:33 55° W 22:37:32 10° N
Envisat 4.5 22:31:39 24° SW 22:33:31 31° W 22:38:01 10° NW
Cosmos 2098 Rocket 4.0 22:36:06 66° S 22:37:11 85° E 22:43:29 10° N
Cosmos 2058 Rocket 4.5 22:40:15 34° N 22:40:15 34° N 22:42:50 10° N
GEOS 3 Rocket 4.3 22:33:41 10° NNE 22:37:08 44° NNE 22:37:08 44° NNE
Cosmos 1937 Rocket 3.9 22:36:24 10° NNW 22:41:24 58° W 22:41:24 58° W
Cosmos 1697 Rocket 3.9 22:41:41 10° SW 22:46:58 40° WNW 22:52:16 10° N
SPOT 1/Viking Rocket 3.9 22:49:24 61° WNW 22:49:24 61° WNW 22:54:04 10° NNW
SL-16 R/B 4.1 22:53:37 19° NE 22:53:37 19° NE 22:55:10 10° NE
ASTEX 1 4.4 22:47:01 10° N 22:51:43 42° WNW 22:52:07 41° W
NOAA 11 4.5 22:53:22 63° WNW 22:53:22 63° WNW 22:58:22 10° NNW
DELTA 2 R/B (1) 4.4 22:47:28 10° W 22:51:19 43° W 22:51:19 43° W
Milstar 3 Cent rocket 4.0 22:38:37 10° W 22:54:21 46° SSW 22:55:17 45° S
Terra 3.3 22:58:03 30° N 22:58:03 30° N 23:00:35 10° N
BREEZE-M DEB (TANK) 4.1 22:47:51 10° SW 23:00:58 87° W 23:00:58 87° W
BREEZE-M DEB (TANK) 3.8 22:54:17 10° W 23:03:40 51° NNW 23:03:49 51° NNW
Cosmos 1980 Rocket 3.2 23:07:25 38° W 23:08:37 43° WNW 23:14:03 10° N
ARGOS 4.2 23:12:35 41° WNW 23:12:35 41° WNW 23:16:56 10° NNW
BREEZE-M DEB (TANK) 4.3 22:57:17 10° WNW 23:23:17 70° NNE 23:24:18 64° ENE
BREEZE-M DEB (TANK) 4.0 23:09:51 10° WNW 23:23:43 62° N 23:23:43 62° N
Cosmos 2322 Rocket 3.8 23:42:07 30° N 23:42:07 30° N 23:44:56 10° NNE
Cosmos 2263 Rocket 3.6 23:35:01 10° NNW 23:38:03 32° N 23:38:03 32° N
Lacrosse 5 4.4 23:48:05 10° WNW 23:49:10 15° WNW 23:49:10 15° WNW
